Torna al catalogo

DELTA 1 DEB

AttivoUNKNOWN
NORAD 12647·DEBRIS·🇺🇸 United States

Lanciato Jul 29, 1976 da Vandenberg Space Force Base

Loading…

Prossimi Passaggi (prossime 24 ore)

TLE

AggiornatoSource: Space-Track

Epoca: Sep 14, 2026, 14:57 UTC

1 12647U 76077EA  26257.62349983 -.00000837  00000-0 -97231-2 0  9997
2 12647 100.6822 314.8786 0369306  67.6746  83.0921 11.86849276 98531

Traccia DELTA 1 DEB in tempo reale con AllMySat

Download on the App Store